Location: Clarion
(42.7316°N, 93.7330°W)
Time: 01:29:49
(UTC+00:00)

Cosmos 2297 - Pass Details

Date: 22 April 2026
Orbit: 833 x 859 km, 71.0° (Epoch: 20 May)

Event Time Altitude Azimuth Distance (km) Brightness Sun altitude
Rises 03:01:48 0° 338° (NNW) 3,442 7.9 -19.8°
Reaches altitude 10° 03:04:19 10° 342° (NNW) 2,502 7.0 -20.1°
Maximum altitude 03:10:01 61° 62° (ENE) 969 3.8 -20.9°
Enters shadow 03:11:44 43° 121° (ESE) 1,195 4.0 -21.1°
